Hourly Data Report for January 13, 2006

TORONTO CITY
ONTARIO

43°40'00.000" N
79°24'00.000" W
112.50 m
6158355
71508
XTO

Download Data

Hourly Data (January 2006)
Hourly Data Report for January 13, 2006
TIME
LST
Temp Definition
°C
Dew Point Definition
°C
Rel Hum Definition
%
Precip. Amount Definition
mm

Wind Dir Definition
10's deg

Wind Spd Definition
km/h
Visibility Definition
km
Stn Press Definition
kPa
Hmdx Definition


Wind Chill Definition


Weather Definition


00:00 5.8 1.7 75   LegendMM LegendMM   99.55     LegendNANA
01:00 6.5 1.8 72   LegendMM LegendMM   99.49     LegendNANA
02:00 6.7 1.6 70   LegendMM LegendMM   99.48     LegendNANA
03:00 6.4 1.4 70   LegendMM LegendMM   99.46     LegendNANA
04:00 6.6 1.2 68   LegendMM LegendMM   99.37     LegendNANA
05:00 6.8 1.0 66   LegendMM LegendMM   99.28     LegendNANA
06:00 6.9 0.9 66   LegendMM LegendMM   99.23     LegendNANA
07:00 6.8 1.0 66   LegendMM LegendMM   99.23     LegendNANA
08:00 7.0 1.4 67   LegendMM LegendMM   99.19     LegendNANA
09:00 7.3 2.5 72   LegendMM LegendMM   99.22     LegendNANA
10:00 7.5 3.2 74   LegendMM LegendMM   99.17     LegendNANA
11:00 8.7 4.0 72   LegendMM LegendMM   99.10     LegendNANA
12:00 9.5 4.4 70   LegendMM LegendMM   98.99     LegendNANA
13:00 9.6 4.5 70   LegendMM LegendMM   98.85     LegendNANA
14:00 10.3 4.7 68   LegendMM LegendMM   98.71     LegendNANA
15:00 9.9 5.3 73   LegendMM LegendMM   98.70     LegendNANA
16:00 9.8 5.3 74   LegendMM LegendMM   98.61     LegendNANA
17:00 9.3 5.8 79   LegendMM LegendMM   98.53     LegendNANA
18:00 9.5 5.7 77   LegendMM LegendMM   98.48     LegendNANA
19:00 9.6 6.5 81   LegendMM LegendMM   98.39     LegendNANA
20:00 9.2 5.9 80   LegendMM LegendMM   98.32     LegendNANA
21:00 9.0 6.3 83   LegendMM LegendMM   98.32     LegendNANA
22:00 10.2 6.3 77   LegendMM LegendMM   98.28     LegendNANA
23:00 8.3 6.6 89   LegendMM LegendMM   98.21     LegendNANA

Notes on Data Quality.

Legend

  • E = Estimated
  • M = Missing
  • NA = Not Available*
  • [empty] = Indicates an unobserved value
Date modified: